{"data":{"norad_id":50202,"epoch":"2026-09-20T04:13:20.932608Z","epoch_age_seconds":73340,"freshness":"FRESH","line1":"1 50202U 21125AY  26263.17593672  .00001133  00000+0  48272-4 0  9993","line2":"2 50202  53.1593  74.5820 0001104  97.3692 262.7435 15.31704659266245","mean_motion":15.31704659,"eccentricity":0.0001104,"inclination_deg":53.1593,"raan_deg":74.582,"arg_perigee_deg":97.3692,"mean_anomaly_deg":262.7435,"bstar":4.8272e-5,"rev_number":26624,"period_min":94.01290200032,"perigee_km":469.96999253727,"apogee_km":471.4822215113,"semimajor_km":6848.8631070243,"source":"CELESTRAK","updated_at":"2026-09-20T09:00:39.573610Z"}}